Dewpoint
53 51 50 49 49 47 47 47 41 46 47 40 40 38 34 35 32 34 34 34 32 29 28 27 27 25 28 34 33 30 27 26 27 27 30 30 29 24 27 25 22 27 18 19
52 52 50 49 50 47 47 42 43 46 44 38 37 34 32 33 33 33 33 32 33 31 29 27 27 29 34 35 33 31 32 26 26 22 26 28 26 25 24 22 24 24 20 17
52 52 51 50 50 50 46 41 40 40 40 40 37 31 27 30 36 34 33 32 32 30 29 28 28 28 35 35 34 39 35 28 23 25 27 25 24 24 24 22 26 19 12 20
52 52 51 50 50 51 47 40 37 39 38 36 35 32 30 28 28 34 33 31 30 29 27 26 26 29 30 35 38 34 31 28 25 24 25 25 25 23 23 22 23 18 17 16
52 52 51 51 50 50 45 41 36 34 30 30 30 32 29 29 28 29 28 30 29 28 26 26 27 28 28 28 32 30 31 28 27 24 23 22 21 22 22 24 23 21 19 17
52 52 51 51 50 49 43 42 38 35 32 29 27 28 28 28 30 29 29 28 26 25 29 31 31 31 31 30 30 29 27 28 27 24 20 20 19 20 21 22 23 22 17 20
52 51 51 50 51 49 46 41 40 34 27 28 26 28 27 27 29 29 29 30 27 31 29 28 27 30 30 30 29 28 27 26 27 26 19 15 18 18 21 21 22 24 23 22
51 51 51 51 51 51 47 43 39 36 31 28 26 27 27 29 30 30 30 31 32 31 29 27 22 24 23 26 28 27 26 24 22 20 17 17 14 12 18 19 19 21 23 23
51 51 51 51 51 51 48 44 43 40 33 27 27 26 26 28 27 30 31 33 32 32 29 23 13 8 8 16 24 26 25 24 22 19 15 11 9 14 18 19 11 14 18 19
52 51 51 50 51 51 46 45 43 41 36 32 28 28 29 29 27 27 30 31 30 30 27 21 14 13 16 11 12 21 24 24 22 21 19 19 16 17 20 8 13 23 24 27
52 51 51 51 51 51 47 45 44 41 38 35 32 31 30 30 29 26 31 30 30 29 25 20 18 15 15 14 15 18 22 22 22 21 19 15 19 18 13 18 22 23 28 28
52 51 51 51 51 50 48 44 42 42 39 38 37 36 35 34 33 31 32 29 28 30 26 23 20 18 15 13 11 17 13 18 16 20 21 15 19 20 20 22 24 25 28 27
52 51 51 51 51 50 48 45 42 41 39 38 36 35 35 35 35 35 33 32 31 30 31 29 26 22 21 17 16 14 16 20 16 13 14 18 16 19 21 22 25 25 28 28
53 52 51 51 51 51 48 44 44 42 39 34 34 35 34 35 35 35 35 33 32 32 32 30 28 25 23 20 20 18 21 20 17 16 17 22 20 20 21 23 25 25 26 27
49 52 51 51 51 50 47 45 44 43 39 35 34 34 34 35 35 35 35 34 32 33 32 31 29 28 23 23 24 22 21 20 20 19 20 21 23 24 25 24 24 25 26 26
46 52 51 51 50 49 44 42 45 44 41 37 34 34 34 34 34 34 34 34 33 33 32 31 30 29 27 26 24 24 21 21 22 20 23 24 25 25 25 26 26 26 26 27
46 51 51 51 50 47 43 39 42 44 43 37 34 32 33 34 35 35 35 35 35 34 33 31 30 30 30 29 26 24 24 22 22 21 23 23 24 25 25 26 27 29 26 27
45 48 50 51 49 47 43 43 44 43 39 36 32 31 31 34 32 32 35 33 34 34 32 32 30 31 30 28 29 28 25 24 23 23 24 25 25 26 26 27 26 26 25 26
44 46 49 48 46 43 42 44 43 42 40 33 32 29 28 34 33 33 32 33 28 31 30 30 31 30 27 28 29 27 27 26 25 24 25 25 25 26 26 26 25 24 24 24
44 45 43 38 43 45 45 42 39 38 38 36 34 33 28 32 32 31 30 30 29 24 29 30 29 29 31 31 31 31 29 28 27 25 24 25 26 26 25 25 25 25 23 22
40 36 34 41 45 43 39 33 32 33 32 35 34 32 29 33 31 30 31 29 29 22 26 26 28 28 29 29 28 29 30 29 28 27 28 27 27 26 25 25 25 25 23 21
39 37 40 40 37 32 32 31 32 32 31 34 33 31 32 31 33 31 30 29 27 21 28 24 25 30 27 28 28 30 30 29 27 27 28 27 27 27 26 25 25 24 23 21
40 36 32 32 31 29 30 27 30 30 33 31 31 30 31 31 34 32 31 28 26 27 24 22 27 29 26 26 28 30 29 28 27 27 27 27 27 27 26 25 25 22 20 21
34 32 28 29 27 30 30 30 32 31 32 32 32 31 32 32 31 31 29 29 25 21 17 21 30 27 26 25 27 29 29 27 27 27 27 27 27 26 26 24 21 19 19 21
31 31 26 29 31 31 31 31 32 31 34 32 31 31 32 30 29 30 27 24 22 21 21 27 29 27 26 25 27 27 28 29 28 27 26 25 25 25 24 22 20 20 20 20
31 30 28 30 30 31 32 32 31 33 33 33 33 31 30 28 30 25 25 22 18 22 26 27 29 28 27 26 27 27 28 29 27 26 26 25 24 23 22 20 20 20 20 19
26 28 29 31 31 31 31 31 31 34 32 31 31 28 28 28 26 25 25 23 26 27 27 27 28 27 26 26 27 26 26 26 25 23 24 23 22 22 21 20 19 19 19 19
Lifted_Index
7 7 7 7 8 8 8 6 6 6 7 6 5 5 5 5 5 5 5 4 4 3 3 2 2 2 2 2 2 2 2 1 1 1 1 1 1 1 1 1 1 1 0 0
7 7 7 7 8 8 7 6 6 6 7 6 5 5 5 5 5 5 5 4 4 3 3 2 2 2 2 2 2 2 1 1 1 1 1 1 1 1 1 1 1 1 1 1
7 7 8 8 7 8 7 7 6 6 6 6 5 5 5 5 5 5 5 5 4 4 3 3 2 2 2 2 2 2 1 1 1 1 1 1 0 1 1 1 1 1 1 1
6 7 8 8 7 7 7 7 6 6 6 6 6 6 5 5 5 5 5 5 5 4 4 3 3 2 2 2 2 2 1 1 1 1 1 1 0 1 1 1 1 1 2 2
6 6 7 7 7 7 7 6 6 6 6 6 6 6 5 5 5 6 6 6 6 5 5 4 4 3 2 2 2 2 2 1 1 1 1 1 1 1 1 1 1 1 2 2
5 6 7 7 7 7 7 6 7 7 6 6 6 6 5 5 5 6 6 7 7 6 6 5 5 4 3 3 2 2 2 2 1 1 1 1 1 1 1 1 1 1 2 2
5 6 7 7 7 7 7 7 7 7 6 6 6 6 6 6 5 5 6 7 7 7 7 6 5 5 4 4 3 3 2 2 1 1 1 1 1 2 1 1 1 1 2 2
5 5 6 7 7 7 7 7 7 7 6 6 6 6 6 6 5 5 6 7 8 8 7 6 5 5 5 4 4 3 3 2 2 1 1 1 2 2 2 1 1 1 2 2
4 5 6 6 7 7 7 7 7 7 7 6 6 7 7 6 6 5 6 7 7 7 7 5 4 4 4 4 4 3 3 3 2 1 1 1 2 3 2 2 2 2 2 3
4 5 5 6 6 7 7 7 7 7 7 7 7 7 7 7 6 6 6 6 6 6 5 4 3 4 4 4 4 4 4 3 2 2 1 1 2 3 3 2 2 3 4 4
3 4 5 6 6 7 7 7 7 8 7 7 7 8 8 7 7 6 6 6 6 5 4 4 3 4 4 4 4 4 4 3 3 2 2 2 3 4 4 4 4 4 5 5
3 3 4 5 6 7 7 7 8 8 8 8 8 8 8 8 8 7 7 6 6 5 5 5 4 4 3 3 3 4 4 4 4 4 3 3 4 5 5 6 6 5 5 5
2 3 4 5 5 6 7 7 8 8 8 8 8 8 9 9 8 8 7 7 7 6 6 5 5 4 4 3 3 4 4 5 4 4 5 5 5 6 6 6 6 6 6 6
2 2 3 4 5 6 7 8 8 8 8 7 8 8 9 9 9 9 8 8 7 7 7 6 5 5 5 4 4 4 4 4 4 4 5 5 5 6 6 6 6 7 7 7
2 2 2 4 5 6 7 7 8 8 7 7 7 8 9 9 9 9 8 8 8 7 7 6 6 6 5 5 5 5 5 5 4 4 5 5 5 6 6 6 7 7 7 7
3 2 2 3 5 6 6 7 7 7 7 7 7 8 8 8 8 8 8 8 8 7 7 6 6 6 6 5 4 5 6 6 5 5 5 6 6 6 6 7 7 7 8 8
3 3 3 4 5 6 6 6 7 7 7 7 7 7 8 8 8 8 8 8 8 8 7 7 6 6 6 5 4 6 7 7 6 6 6 6 6 7 7 7 8 8 8 8
5 4 4 4 5 6 6 6 7 7 7 7 7 7 7 7 7 7 7 7 7 7 7 6 6 6 5 4 5 6 7 7 7 7 7 7 7 7 7 8 8 8 8 9
5 5 5 5 5 6 6 7 7 7 7 7 7 7 6 6 6 6 6 7 6 7 7 6 5 4 4 4 6 7 7 7 7 7 7 7 7 7 8 8 9 9 9 9
5 5 5 5 6 6 6 6 6 6 6 7 7 7 6 6 6 5 6 6 6 6 6 5 4 3 3 5 6 7 7 7 7 7 7 7 7 8 8 9 9 9 10 10
5 5 5 6 6 6 6 5 6 6 6 7 6 6 6 6 6 6 6 6 5 5 5 5 3 3 4 5 6 7 7 8 8 8 8 8 8 8 9 9 10 10 10 11
5 5 5 5 5 5 5 5 5 6 6 6 6 6 6 7 7 7 6 6 5 5 5 4 3 3 5 6 6 7 7 8 8 8 9 9 9 9 9 10 10 10 11 11
5 5 4 4 4 4 4 4 5 5 6 6 5 5 6 7 7 7 6 6 5 5 5 4 3 4 5 6 6 7 7 8 8 8 9 9 9 9 10 10 10 10 11 11
5 4 3 3 4 4 4 5 5 5 5 5 5 5 6 6 6 6 6 5 5 5 4 3 3 4 5 6 7 7 7 8 8 8 8 9 9 9 9 9 10 10 10 11
6 5 3 3 4 5 5 5 6 5 5 5 5 5 5 5 5 5 5 4 4 4 3 4 4 5 6 6 7 7 7 7 8 8 8 8 8 8 9 9 9 10 10 11
7 6 5 5 5 5 5 6 6 6 5 5 4 4 4 4 4 4 3 3 3 4 4 5 6 6 6 7 7 7 7 7 7 8 8 8 8 8 8 8 9 10 10 11
7 7 6 6 5 5 5 5 6 6 5 4 4 3 3 3 3 3 3 3 3 4 6 7 7 7 7 7 7 7 7 7 7 7 7 7 7 8 8 8 8 9 10 11